MST,Max TemperatureF,Mean TemperatureF,Min TemperatureF,Max Dew PointF,MeanDew PointF,Min DewpointF,Max Humidity, Mean Humidity, Min Humidity, Max Sea Level PressureIn, Mean Sea Level PressureIn, Min Sea Level PressureIn, Max VisibilityMiles, Mean VisibilityMiles, Min VisibilityMiles, Max Wind SpeedMPH, Mean Wind SpeedMPH, Max Gust SpeedMPH,PrecipitationIn, CloudCover, Events, WindDirDegrees
2013-2-1,62,44,26,32,26,21,93,58,20,30.28,30.23,30.19,10,10,10,8,3,,0.00,0,,276
2013-2-2,68,48,28,30,23,16,87,49,13,30.36,30.29,30.24,10,10,10,15,5,21,0.00,0,,144
2013-2-3,60,48,35,34,23,18,66,37,19,30.25,30.12,30.03,10,10,10,15,7,20,0.00,3,,175
2013-2-4,64,50,37,37,35,32,87,59,34,30.10,30.04,29.99,10,10,10,13,3,,0.00,2,,300
2013-2-5,66,49,32,37,33,30,100,61,28,30.10,30.03,29.97,10,10,10,10,1,,0.00,0,,287
2013-2-6,64,48,32,36,32,28,93,57,26,30.06,29.99,29.94,10,10,10,17,5,21,0.00,0,,269
2013-2-7,62,47,32,37,31,18,100,55,18,30.16,30.09,30.06,10,10,10,9,2,,0.00,0,,280
2013-2-8,68,54,41,27,18,3,53,30,9,30.06,29.94,29.81,10,10,10,23,12,30,0.00,0,,172
2013-2-9,51,40,28,34,24,16,93,53,26,30.01,29.87,29.76,10,10,1,25,12,34,0.00,2,Rain-Snow,270
2013-2-10,51,37,23,27,19,12,93,54,22,30.02,29.97,29.91,10,10,10,12,5,16,0.00,0,,290
2013-2-11,53,35,17,34,19,10,100,56,21,30.04,29.97,29.91,10,10,2,20,7,28,0.00,3,Snow,256
2013-2-12,46,34,23,32,21,12,93,61,25,30.20,30.13,30.04,10,10,10,15,8,21,0.00,0,,294
2013-2-13,53,36,19,19,15,10,80,43,18,30.19,30.13,30.07,10,10,10,13,5,,0.00,0,,280
2013-2-14,60,40,21,21,16,12,68,38,15,30.16,30.10,30.04,10,10,10,15,4,21,0.00,0,,294
2013-2-15,60,44,28,23,18,14,69,41,16,30.35,30.26,30.16,10,10,10,15,4,10,0.00,0,,160
2013-2-16,64,44,23,19,11,5,68,34,10,30.41,30.28,30.14,10,10,10,16,7,24,0.00,0,,148
2013-2-17,69,46,23,14,9,5,54,25,9,30.14,29.98,29.83,10,10,10,20,7,28,0.00,0,,233
2013-2-18,62,47,32,18,11,5,44,24,10,30.11,30.03,29.97,10,10,10,13,7,20,0.00,0,,285
2013-2-19,62,47,32,37,22,9,70,39,16,30.02,29.91,29.78,10,10,3,34,11,47,0.00,1,,172
2013-2-20,53,42,32,36,30,23,100,68,30,29.85,29.73,29.60,10,9,0,28,12,39,0.01,4,Rain-Snow,236
2013-2-21,44,37,30,32,29,27,93,77,53,30.00,29.94,29.86,10,10,10,16,8,20,0.00,7,,294
2013-2-22,51,40,28,30,27,23,93,63,33,30.11,30.02,29.94,10,10,10,20,7,26,0.00,1,,291
2013-2-23,60,42,23,27,22,18,93,52,19,30.12,29.98,29.82,10,10,10,14,5,22,0.00,0,,281
2013-2-24,48,38,28,34,20,12,81,51,27,29.99,29.83,29.74,10,10,10,34,11,46,0.00,3,Rain,288
2013-2-25,53,37,21,18,12,5,68,41,16,30.14,30.06,30.00,10,10,10,14,8,22,0.00,0,,294
2013-2-26,60,42,23,19,12,3,59,32,11,30.06,29.96,29.89,10,10,10,22,7,29,0.00,0,,295
2013-2-27,55,38,21,7,1,-2,46,23,10,30.26,30.17,30.07,10,10,10,14,7,20,0.00,0,,147
2013-2-28,59,38,17,5,3,0,45,24,11,30.32,30.27,30.20,10,10,10,8,4,,0.00,0,,257